Location: PSU-Greenbush Astrophysical Observatory
(37.5140°N, 94.9880°W)
Time: 06:04:08
(UTC-06:00)

Vanguard 3 - Visible Passes

Search period start: 20 January 2020 00:00
Search period end: 30 January 2020 00:00
Orbit: 508 x 3263 km, 33.3° (Epoch: 19 January)

Date Brightness Start Highest point End Pass type
(mag) Time Alt. Az. Time Alt. Az. Time Alt. Az.
20 Jan 10.3 17:52:56 10° SW 18:11:35 50° SSE 18:25:32 11° E visible
20 Jan 9.2 20:08:26 10° WSW 20:27:10 71° S 20:30:06 60° ESE visible
20 Jan 10.2 22:26:23 10° W 22:34:40 34° W 22:34:40 34° W visible
21 Jan 9.9 18:51:21 10° WSW 19:10:50 64° SSE 19:20:18 27° E visible
21 Jan 9.3 21:08:31 10° W 21:24:51 71° SW 21:24:51 71° SW visible
21 Jan 10.9 23:26:39 10° W 23:29:26 17° W 23:29:26 17° W visible
22 Jan 10.4 17:35:13 10° SW 17:54:14 54° SSE 18:09:39 10° E visible
22 Jan 9.4 19:50:50 10° WSW 20:10:13 74° S 20:15:02 51° ESE visible
22 Jan 10.0 22:08:50 10° W 22:19:37 43° W 22:19:37 43° W visible
23 Jan 10.0 18:33:47 10° WSW 18:53:37 68° SSE 19:05:13 22° E visible
23 Jan 9.2 20:50:56 10° W 21:09:31 75° S 21:09:47 75° S visible
23 Jan 10.7 23:09:13 10° W 23:14:21 23° W 23:14:21 23° W visible
24 Jan 9.6 19:33:19 10° WSW 19:53:10 76° S 19:59:58 42° ESE visible
24 Jan 9.8 21:51:16 10° W 22:04:31 52° WSW 22:04:31 52° WSW visible
25 Jan 10.1 18:16:22 10° WSW 18:36:20 71° SSE 18:50:08 17° E visible
25 Jan 9.3 20:33:24 10° W 20:52:36 75° S 20:54:43 68° SE visible
25 Jan 10.5 22:51:43 10° W 22:59:16 29° W 22:59:16 29° W visible
26 Jan 9.8 19:15:54 10° W 19:36:02 77° S 19:44:54 34° E visible
26 Jan 9.6 21:33:43 10° W 21:49:28 60° SW 21:49:28 60° SW visible
26 Jan 11.1 23:52:42 10° W 23:54:01 13° W 23:54:01 13° W visible
27 Jan 10.2 17:59:07 10° WSW 18:18:58 74° S 18:35:06 12° E visible
27 Jan 9.4 20:15:56 10° W 20:35:34 74° S 20:39:40 57° SE visible
27 Jan 10.3 22:34:13 10° W 22:44:14 35° WSW 22:44:14 35° WSW visible
28 Jan 10.0 18:58:36 10° W 19:18:49 78° S 19:29:53 27° E visible
28 Jan 9.6 21:16:11 10° W 21:34:27 61° SSW 21:34:27 61° SSW visible
28 Jan 11.0 23:35:28 10° W 23:39:02 16° W 23:39:02 16° W visible
29 Jan 10.3 17:42:01 10° WSW 18:01:35 76° S 18:19:03 10° E visible
29 Jan 9.6 19:58:32 10° W 20:18:25 72° SSW 20:24:43 45° SE visible
29 Jan 10.2 22:16:44 10° W 22:29:18 39° WSW 22:29:18 39° WSW visible
